Satellite: NOAA-16
Catalog number: 26536
Epoch time:      11104.25935476
Element set:     260
Inclination:      099.1454 deg
RA of node:       133.4878 deg
Eccentricity:    0.0010349
Arg of perigee:   208.0631 deg
Mean anomaly:     151.9969 deg
Mean motion:   14.12609884 rev/day
Decay rate:       1.98e-06 rev/day^2
Epoch rev:           54433
Checksum:              318

Satellite: NOAA-17
Catalog number: 27453
Epoch time:      11104.31764176
Element set:     254
Inclination:      098.3857 deg
RA of node:       146.9402 deg
Eccentricity:    0.0011441
Arg of perigee:   341.2143 deg
Mean anomaly:     018.8614 deg
Mean motion:   14.24257609 rev/day
Decay rate:        7.1e-07 rev/day^2
Epoch rev:           45756
Checksum:              291

Satellite: NOAA-18
Catalog number: 28654
Epoch time:      11104.51410306
Element set:     735
Inclination:      098.9903 deg
RA of node:       055.5244 deg
Eccentricity:    0.0013540
Arg of perigee:   286.1461 deg
Mean anomaly:     073.8225 deg
Mean motion:   14.11458430 rev/day
Decay rate:       -7.3e-07 rev/day^2
Epoch rev:           30394
Checksum:              279

Satellite: NOAA-19
Catalog number: 33591
Epoch time:      11104.49729123
Element set:     927
Inclination:      098.8223 deg
RA of node:       045.7361 deg
Eccentricity:    0.0014314
Arg of perigee:   152.9721 deg
Mean anomaly:     207.2195 deg
Mean motion:   14.11150948 rev/day
Decay rate:      -1.12e-06 rev/day^2
Epoch rev:           11240
Checksum:              274

/EX
SB KEPS @ AMSAT  $ORB11104.M
Orbital Elements  11104.MISC

HR AMSAT ORBITAL ELEMENTS FOR MANNED AND MISCELLANEOUS SATELLITES
FROM WA5QGD FORT WORTH,TX April 14, 2011
Send Subscribe/unsubscribe to KEPS at http://www.amsat.org/mailman/listinfo/kep
BID: ORB11104.M
TO ALL RADIO AMATEURS BT

Satellite: HUBBLE
Catalog number: 20580
Epoch time:      11103.23744914
Element set:     746
Inclination:      028.4683 deg
RA of node:       080.7005 deg
Eccentricity:    0.0003489
Arg of perigee:   147.4577 deg
Mean anomaly:     212.6114 deg
Mean motion:   15.01279103 rev/day
Decay rate:      1.578e-05 rev/day^2
Epoch rev:           94988
Checksum:              295

Satellite: ISS
Catalog number: 25544
Epoch time:      11104.99551323
Element set:     190
Inclination:      051.6448 deg
RA of node:       125.2437 deg
Eccentricity:    0.0002715
Arg of perigee:   111.5701 deg
Mean anomaly:     332.3136 deg
Mean motion:   15.73416244 rev/day
Decay rate:     2.6104e-04 rev/day^2
Epoch rev:           71095
Checksum:              257

Satellite: CO-58
Catalog number: 28895
Epoch time:      11104.67533442
Element set:     848
Inclination:      097.9774 deg
RA of node:       343.4887 deg
Eccentricity:    0.0018779
Arg of perigee:   062.2614 deg
Mean anomaly:     298.0494 deg
Mean motion:   14.60062831 rev/day
Decay rate:       6.87e-06 rev/day^2
Epoch rev:           29097
Checksum:              364

Satellite: FALCON
Catalog number: 30776
Epoch time:      11103.94086801
Element set:    0078
Inclination:      035.4336 deg
RA of node:       017.5669 deg
Eccentricity:    0.0002001
Arg of perigee:   287.2276 deg
Mean anomaly:     072.8219 deg
Mean motion:   15.04404334 rev/day
Decay rate:      4.180e-05 rev/day^2
Epoch rev:           22536
Checksum:              271

Satellite: MAST
Catalog number: 31126
Epoch time:      11103.81821365
Element set:     132
Inclination:      097.9018 deg
RA of node:       134.6667 deg
Eccentricity:    0.0094846
Arg of perigee:   011.8428 deg
Mean anomaly:     348.4962 deg
Mean motion:   14.53716506 rev/day
Decay rate:       4.22e-06 rev/day^2
Epoch rev:           21173
Checksum:              286

Satellite: CAPE1
Catalog number: 31130
Epoch time:      11103.60649051
Element set:    0152
Inclination:      097.9044 deg
RA of node:       131.3289 deg
Eccentricity:    0.0102977
Arg of perigee:   022.4500 deg
Mean anomaly:     338.1146 deg
Mean motion:   14.52348001 rev/day
Decay rate:       6.13e-06 rev/day^2
Epoch rev:           21126
Checksum:              238

Satellite: COMPASS
Catalog number: 32787
Epoch time:      11103.27539916
Element set:    0960
Inclination:      097.8532 deg
RA of node:       168.2880 deg
Eccentricity:    0.0016374
Arg of perigee:   031.8204 deg
Mean anomaly:     328.4046 deg
Mean motion:   14.82293112 rev/day
Decay rate:      1.858e-05 rev/day^2
Epoch rev:           15994
Checksum:              314

Satellite: AAUSAT2
Catalog number: 32788
Epoch time:      11103.71954527
Element set:    0950
Inclination:      097.8513 deg
RA of node:       168.9257 deg
Eccentricity:    0.0016001
Arg of perigee:   031.5585 deg
Mean anomaly:     328.6564 deg
Mean motion:   14.82468346 rev/day
Decay rate:      1.449e-05 rev/day^2
Epoch rev:           16002
Checksum:              311

Satellite: DO-64
Catalog number: 32789
Epoch time:      11103.68054787
Element set:    0967
Inclination:      097.8612 deg
RA of node:       169.7756 deg
Eccentricity:    0.0015781
Arg of perigee:   029.8374 deg
Mean anomaly:     330.3755 deg
Mean motion:   14.82853305 rev/day
Decay rate:      2.977e-05 rev/day^2
Epoch rev:           16002
Checksum:              349

